sat.trackr.live / text

‹ back to catalog

STARLINK-30479

NORAD 57898 · 2023-146H

PAYLOAD ACTIVE UNKNOWN

§ Identity

Operator
Country
US
Launch date
2023-09-20
Launch site
AFETR
Launch vehicle
Mass (kg)
RCS (m²)

Purposes: comms

External: N2YO · Heavens-Above · Gunter

§ Orbital elements

Epoch: 2026-09-20T09:32:35.004768Z

Period
94.27 min
Inclination
43.0012°
Eccentricity
0.0001186
Mean motion
15.27578311 rev/d
Perigee alt
482.2 km
Apogee alt
483.9 km
Semi-major
6,861.2 km
B*
-1.4367e-5
RAAN
294.6510°
Arg perigee
268.7215°
Mean anomaly
91.3501°
Rev number
16,683

§ Raw data

STARLINK-304791 57898U 23146H   26263.39762737 -.00000657  00000+0 -14367-4 0  99902 57898  43.0012 294.6510 0001186 268.7215  91.3501 15.27578311166836

JSON: /api/v1/satellites/57898 · /tle

For live sub-satellite position, see the globe view (requires WebGL).

§ Visibility from observer

Set your observer location to see the next 7 days of passes ≥ 10°. The values pass through the URL so the page stays shareable.

No JS? Fill the form by hand. The geolocation button needs JavaScript.